User: anonymous   Login
Location: Doux
(49.5045°N, 4.4321°E)
Time: 20:02:22
(UTC+00:00)
Language:

Cosmos 1782 Rocket - Orbit

View from above orbital plane
View from above orbital plane
View from above satellite
View from above satellite

Ground track
Ground track

The orbit data is extracted from the following two-line orbital elements,

1 16987U 86074B   24197.85793720  .00000737  00000-0  85001-4 0  9995
2 16987  82.5145  47.8701 0018429  23.6960 346.7735 14.84243308 41754
Epoch (UTC): 15 July 2024 20:35:25
Eccentricity: 0.0018429
inclination: 82.5145°
perigee height: 603 km
apogee height: 629 km
right ascension of ascending node: 47.8701°
argument of perigee: 23.6960°
revolutions per day: 14.84243308
mean anomaly at epoch: 346.7735°
orbit number at epoch: 4175

The dashed part of the orbit path shows where the satellite is in the earth's shadow,  

DLR